Regional Weather Roundup
Issued by NWS Boston, MA

Home | Current Version | Previous Version | Text Only | Print | Product List | Glossary On
Versions: 1 2 3 4 5 6 7 8 9 10 11 12 13 14 15 16 17 18 19 20 21 22 23 24 25 26 27 28 29 30 31 32 33 34 35 36 37 38 39 40 41 42 43 44 45 46 47 48 49 50
000
ASUS41 KBOX 241010
RWRBOX

REGIONAL WEATHER ROUNDUP
NATIONAL WEATHER SERVICE TAUNTON MA
600 AM EDT SUN MAY 24 2015

NOTE:  "FAIR" INDICATES FEW OR NO CLOUDS BELOW 12,000 FEET WITH NO
SIGNIFICANT WEATHER AND/OR OBSTRUCTIONS TO VISIBILITY.  THE FOLLOWING
OBSERVATION LOCATIONS DO NOT REPORT PRESENT WEATHER...PROVINCETOWN...
SMITHFIELD...BLOCK ISLAND...KEENE...AND OXFORD.

MAZALL-241100-
EASTERN MASSACHUSETTS

CITY           SKY/WX    TMP DP  RH WIND       PRES   REMARKS
BOSTON         PTCLDY    53  38  56 SW15      30.26R
BEVERLY        PTCLDY    49  35  58 SW6       30.24S
LAWRENCE       PTCLDY    48  36  63 SW9       30.26R
BEDFORD        PTCLDY    50  35  56 SW5       30.24R
BLUE HILL        N/A     49  38  65 SW15      30.25S
NORWOOD        CLEAR     44  40  85 CALM      30.27S
MARSHFIELD     CLEAR     52  45  76 SW9       30.29R
PLYMOUTH       CLEAR     48  45  89 S6        30.30R
TAUNTON        CLEAR     52  45  77 VRB5      30.29S
NEW BEDFORD    CLEAR     51  47  86 SW8       30.29S
$$

MAZALL-241100-
CAPE COD AND THE ISLANDS

CITY           SKY/WX    TMP DP  RH WIND       PRES   REMARKS
FALMOUTH       CLEAR     52  50  93 SW9G16    30.31S
HYANNIS        CLEAR     53  49  86 SW15      30.29S
CHATHAM        CLEAR     54  48  80 SW10G22   30.31S
PROVINCETOWN   CLEAR     52  45  76 SW18      30.28S
NANTUCKET      CLEAR     53  47  79 SW15      30.33S
MARTHAS VNYRD  CLEAR     53  48  83 SW9G20    30.32S
$$

MAZALL-241100-
CENTRAL AND WESTERN MASSACHUSETTS

CITY           SKY/WX    TMP DP  RH WIND       PRES   REMARKS
WORCESTER      CLEAR     50  32  50 W15       30.27S
FITCHBURG      PTCLDY    55  31  39 W10       30.26R
ORANGE         PTCLDY    36  34  92 CALM      30.29R
SPRINGFIELD    CLEAR     36  35  96 NE3       30.29R
WESTFIELD      CLEAR     40  36  86 N3        30.30
NORTH ADAMS    PTCLDY    34  32  92 CALM      30.32R
PITTSFIELD     CLEAR     37  34  89 CALM      30.30R
$$

RIZALL-241100-
RHODE ISLAND

CITY           SKY/WX    TMP DP  RH WIND       PRES   REMARKS
PROVIDENCE     PTCLDY    49  44  83 SW7       30.30F
NEWPORT        CLEAR     51  48  89 VRB6      30.31S
BLOCK ISLAND   CLEAR     52  46  82 SW14      30.34R
SMITHFIELD     CLEAR     48  36  61 W7        30.29R
WESTERLY       CLEAR     51  49  92 SW5       30.34R
$$

CTZALL-241100-
CONNECTICUT

CITY           SKY/WX    TMP DP  RH WIND       PRES   REMARKS
BRADLEY INTL   PTCLDY    48  41  76 CALM      30.30R
HARTFORD       CLEAR     49  44  83 S6        30.31S
BRIDGEPORT     CLEAR     49  46  90 CALM      30.34R
DANBURY        CLEAR     42  37  82 CALM      30.34S
GROTON         CLEAR     52  48  86 W5        30.33S
NEW HAVEN      CLEAR     52  48  86 W5        30.34S
CHESTER        NOT AVBL
MERIDEN        CLEAR     45  43  93 SE5       30.33S
WILLIMANTIC    CLEAR     41  38  89 CALM      30.32S
OXFORD         CLEAR     45  36  70 SW5       30.34S
$$

MEZ002-015-021-024-NHZ003-005-008-011-012-014-VTZ005-008-241100-
NORTHERN NEW ENGLAND

CITY           SKY/WX    TMP DP  RH WIND       PRES   REMARKS
PORTLAND ME    PTCLDY    51  32  48 SW10      30.17S
BANGOR ME      CLOUDY    47  32  56 S6        30.09S
CONCORD NH     CLEAR     43  32  65 S6        30.21S
MANCHESTER NH  PTCLDY    48  34  58 SW3       30.22R
NASHUA NH      PTCLDY    43  37  79 CALM      30.24S
PORTSMOUTH NH  MOCLDY    51  33  50 SW10      30.20S
JAFFREY NH     PTCLDY    46  35  65 S12       30.27R
KEENE NH       PTCLDY   N/A N/A N/A CALM      30.28R
BURLINGTON VT  MOCLDY    54  30  40 S12       30.17R
MT. WASHINGTON MOCLDY    32  27  80 NW74G82     N/A  WCI  12
$$

NYZ052-076-241100-
EASTERN NEW YORK

CITY           SKY/WX    TMP DP  RH WIND       PRES   REMARKS
ALBANY         MOCLDY    46  35  65 CALM      30.30R
NEW YORK CITY  PTCLDY    56  40  55 S6        30.35R
$$

ANZALL-241100-
MARINE OBSERVATIONS

STATION/POSITION TIME  TEMP    WIND        PRES    VSBY  WAVE
                       AIR SEA DIR/SP/G                  HT/PER
                 (UTC) (F)     (DEG/KT/KT) (MB)    (MI)  (FT/S)
BOSTON BUOY      0950   52 52  240/ 14/ 17   N/A           2/ 3
BUZZARDS BAY     1000          230/ 19/ 22   N/A
NANTUCKET SOUND  0950   55 56  230/ 19/ 23   N/A           2/ 4
MASS BAY-STELLWA 0904   51 49   10/  6/ 17   N/A    1 7/8  3/ 4
ISLE OF SHOALS   1000   50     230/ 13/ 14   N/A
S OF BLOCK IS    0908      52                N/A           4/ 5
$$

......................KEY.........................
  SKY/WX - SKY CONDITION/PRESENT WEATHER
  TMP    - TEMPERATURE IN FAHRENHEIT
  DWPT   - DEWPOINT IN FAHRENHEIT
  RH     - RELATIVE HUMIDITY IN PERCENT
  WIND   - DIRECTION AND SPEED IN MPH
  PRES   - MEAN SEA LEVEL PRESSURE IN INCHES OF HG
  WCI    - WIND CHILL INDEX
  VSB    - VISIBILITY IN MILES
  HX     - HEAT INDEX
  TC     - TEMPERATURE IN CELSIUS
  VRB    - VARIABLE WIND DIRECTION
  N/A    - NOT AVAILABLE


USA.gov is the U.S. government's official web portal to all federal, state and local government web resources and services.